Location: East Guldeford
(50.9500°N, 0.7500°E)
Time: 08:50:38
(UTC+00:00)

SL-08 R/B - Pass Details

Date: 12 May 2021
Orbit: 951 x 1018 km, 82.9° (Epoch: 16 June)

Event Time Altitude Azimuth Distance (km) Brightness Sun altitude
Rises 23:14:56 0° 349° (N) 3,660 9.1 -20.2°
Reaches altitude 10° 23:17:25 10° 350° (N) 2,717 8.1 -20.2°
Maximum altitude 23:23:40 87° 261° (W) 986 4.4 -20.4°
Enters shadow 23:26:23 37° 175° (S) 1,488 4.9 -20.4°
